Location: Buchloe
(48.0161°N, 10.7316°E)
Time: 23:51:41
(UTC+01:00)

ISS - Pass Details

Date: 08 December 2021
Orbit: 413 x 422 km, 51.6° (Epoch: 24 January)

Event Time Altitude Azimuth Distance (km) Brightness Sun altitude
Rises 17:54:34 0° 287° (WNW) 2,382 1.0 -14.4°
Reaches altitude 10° 17:57:03 10° 269° (W) 1,511 0.3 -14.8°
Maximum altitude 17:59:34 19° 222° (SW) 1,060 -0.9 -15.2°
Drops below altitude 10° 18:02:04 10° 174° (S) 1,499 -0.8 -15.6°
Enters shadow 18:05:59 -5° 151° (SSE) 2,915 0.4 -16.2°
